CW6666 Weather Reports


Display with metric or nautical units.
time (UTC)temp
F
wind
direction
speed
MPH
gust
MPH
rain 1hr
in
rain 24hr
in
rain mn
in
humidity
%
barometer
mb
20141025032421 86 55 10.0 12.0 0.00 0.02 0.02 86 1008.5
20141025031859 86 60 10.0 12.0 0.00 0.02 0.02 85 1008.5
20141025031424 86 56 11.0 13.0 0.00 0.02 0.02 85 1008.7
20141025030905 86 53 12.0 13.0 0.00 0.02 0.02 85 1008.7
20141025030421 87 39 11.0 13.0 0.00 0.02 0.02 85 1008.7
20141025025840 86 54 11.0 12.0 0.00 0.02 0.02 85 1008.8
20141025024913 86 55 11.0 12.0 0.00 0.02 0.02 84 1008.8
20141025024346 86 55 10.0 12.0 0.00 0.02 0.02 84 1009.0
20141025023356 86 65 8.0 10.0 0.00 0.02 0.02 84 1009.0
20141025022842 86 61 8.0 11.0 0.00 0.02 0.02 85 1009.5
20141025022428 86 67 9.0 11.0 0.00 0.02 0.02 84 1009.5
20141025021850 86 66 10.0 11.0 0.00 0.02 0.02 85 1009.5
20141025021415 86 73 8.0 11.0 0.00 0.02 0.02 85 1009.5
20141025020844 86 71 8.0 11.0 0.00 0.02 0.02 85 1009.5
20141025020426 86 68 8.0 11.0 0.00 0.02 0.02 85 1009.5
20141025015849 86 67 10.0 11.0 0.00 0.02 0.02 86 1009.5
20141025015424 85 71 6.0 8.0 0.00 0.02 0.02 87 1009.5
20141025014851 85 64 6.0 8.0 0.00 0.02 0.02 87 1009.5
20141025013403 85 75 11.0 14.0 0.00 0.02 0.02 86 1009.8
20141025012845 86 62 8.0 9.0 0.00 0.02 0.02 85 1009.7
20141025012425 86 37 7.0 11.0 0.00 0.02 0.02 85 1009.7
20141025011856 86 33 8.0 11.0 0.00 0.02 0.02 85 1009.7
20141025011422 86 60 9.0 11.0 0.00 0.02 0.02 85 1010.0
20141025010846 86 50 6.0 8.0 0.00 0.02 0.02 84 1010.0
20141025010415 86 55 5.0 7.0 0.00 0.02 0.02 83 1010.0
20141025005850 86 76 4.0 7.0 0.00 0.02 0.02 83 1010.0
20141025005430 86 53 7.0 7.0 0.00 0.02 0.02 83 1010.0
20141025004853 86 68 6.0 8.0 0.00 0.02 0.02 84 1010.0
20141025004419 87 59 7.0 10.0 0.00 0.02 0.02 84 1010.6
20141025003846 87 57 9.0 10.0 0.00 0.02 0.02 84 1010.6
20141025002912 87 65 8.0 12.0 0.00 0.02 0.02 85 1010.7
20141025002348 86 63 10.0 12.0 0.00 0.02 0.02 84 1010.7
20141025001928 87 61 8.0 12.0 0.00 0.02 0.02 85 1010.7
20141025001405 87 63 10.0 12.0 0.00 0.02 0.02 85 1010.6
20141025000842 87 66 9.0 11.0 0.00 0.02 0.02 84 1010.6
20141024235901 86 65 10.0 11.0 0.00 0.02 0.02 83 1010.6
20141024235429 86 75 7.0 10.0 0.00 0.02 0.02 85 1010.6
20141024234854 86 53 9.0 10.0 0.00 0.02 0.02 84 1010.6
20141024233835 86 59 6.0 9.0 0.00 0.02 0.02 85 1010.4
20141024233402 86 64 6.0 10.0 0.00 0.02 0.02 85 1010.4
20141024232900 86 53 7.0 10.0 0.00 0.02 0.02 85 1010.6
20141024231837 85 67 7.0 10.0 0.00 0.02 0.02 85 1010.5
20141024231410 85 49 9.0 10.0 0.00 0.02 0.02 85 1010.4
20141024230401 86 61 6.0 9.0 0.00 0.02 0.02 85 1010.4
20141024225849 86 47 9.0 9.0 0.00 0.02 0.02 85 1010.3
20141024225422 86 55 6.0 8.0 0.00 0.02 0.02 84 1010.3
20141024224932 86 46 6.0 8.0 0.00 0.02 0.02 84 1010.3
20141024224346 86 42 6.0 10.0 0.00 0.02 0.02 84 1010.4
20141024223840 86 51 7.0 10.0 0.00 0.02 0.02 85 1010.4
20141024223414 85 46 6.0 9.0 0.00 0.02 0.02 85 1010.4
20141024222842 85 34 7.0 9.0 0.00 0.02 0.02 85 1010.5
20141024222404 85 46 8.0 9.0 0.00 0.02 0.02 85 1010.5
20141024221843 85 36 7.0 8.0 0.00 0.02 0.02 85 1010.5
20141024221420 85 32 2.0 4.0 0.00 0.02 0.02 85 1010.4
20141024220855 85 33 0.0 2.0 0.00 0.02 0.02 84 1010.4
20141024220425 85 33 0.0 9.0 0.00 0.02 0.02 85 1010.4
20141024215846 85 33 1.0 11.0 0.00 0.02 0.02 85 1010.1
20141024214920 85 47 8.0 10.0 0.00 0.02 0.02 85 1010.1
20141024214344 85 51 8.0 10.0 0.00 0.02 0.02 84 1010.0
20141024213419 85 36 8.0 10.0 0.00 0.02 0.02 84 1010.0
20141024212844 85 47 9.0 10.0 0.00 0.02 0.02 85 1009.9
20141024212406 85 49 7.0 9.0 0.00 0.02 0.02 85 1009.9
20141024211831 84 55 7.0 9.0 0.00 0.02 0.02 85 1009.9
20141024211416 84 59 8.0 10.0 0.00 0.02 0.02 85 1009.7
20141024210842 84 44 6.0 11.0 0.00 0.02 0.02 86 1009.7
20141024210412 84 55 8.0 11.0 0.00 0.02 0.02 86 1009.7
20141024205840 84 41 5.0 9.0 0.00 0.02 0.02 87 1009.5
20141024205412 84 57 7.0 9.0 0.00 0.02 0.02 87 1009.5
20141024204841 84 46 6.0 8.0 0.00 0.02 0.02 87 1009.5
20141024203909 83 55 8.0 10.0 0.00 0.02 0.02 87 1009.4
20141024203347 83 47 8.0 10.0 0.00 0.02 0.02 87 1009.4
20141024202839 83 49 9.0 10.0 0.00 0.02 0.02 87 1009.0
20141024202409 83 62 7.0 10.0 0.00 0.02 0.02 87 1009.0
20141024201842 83 49 7.0 9.0 0.00 0.02 0.02 88 1009.0
20141024201425 82 59 7.0 9.0 0.00 0.02 0.02 88 1008.8
20141024200848 82 43 3.0 7.0 0.00 0.02 0.02 87 1008.8
20141024200421 82 43 5.0 7.0 0.00 0.02 0.02 87 1008.8
20141024195857 82 39 4.0 5.0 0.00 0.02 0.02 87 1008.5
20141024195431 82 38 5.0 6.0 0.00 0.02 0.02 87 1008.5
20141024194852 82 36 5.0 7.0 0.00 0.02 0.02 87 1008.5
20141024194415 82 36 5.0 7.0 0.00 0.02 0.02 88 1008.4
20141024193855 82 46 6.0 7.0 0.00 0.02 0.02 88 1008.4
20141024193424 82 46 5.0 6.0 0.00 0.02 0.02 88 1008.4
20141024192858 82 41 5.0 6.0 0.00 0.02 0.02 88 1008.4
20141024192427 82 42 5.0 6.0 0.00 0.02 0.02 88 1008.4
20141024191846 81 32 4.0 6.0 0.00 0.02 0.02 88 1008.4
20141024191415 81 46 1.0 5.0 0.00 0.02 0.02 87 1008.1
20141024190851 82 46 4.0 5.0 0.00 0.02 0.02 87 1008.1
20141024190432 81 58 5.0 5.0 0.00 0.02 0.02 87 1008.1
20141024185915 81 85 3.0 4.0 0.00 0.02 0.02 86 1008.0
20141024185353 81 100 2.0 5.0 0.00 0.02 0.02 87 1008.0
20141024184841 81 98 3.0 5.0 0.00 0.02 0.02 87 1008.0
20141024184408 81 93 5.0 5.0 0.00 0.02 0.02 87 1008.0
20141024183838 81 92 2.0 6.0 0.00 0.02 0.02 87 1008.0
20141024183413 81 90 5.0 6.0 0.00 0.02 0.02 87 1008.0
20141024182845 81 87 4.0 7.0 0.00 0.02 0.02 87 1008.0
20141024182412 81 96 6.0 7.0 0.00 0.02 0.02 87 1008.0
20141024181843 81 78 4.0 7.0 0.00 0.02 0.02 88 1008.0
20141024181424 81 71 6.0 7.0 0.00 0.02 0.02 88 1008.2
20141024180853 81 76 5.0 9.0 0.00 0.02 0.02 88 1008.2
20141024180426 81 91 5.0 9.0 0.00 0.02 0.02 88 1008.2
20141024175850 81 89 7.0 10.0 0.00 0.02 0.02 88 1008.4
20141024175420 81 71 8.0 10.0 0.00 0.02 0.02 88 1008.4
20141024174845 81 85 7.0 10.0 0.00 0.02 0.02 88 1008.4
20141024174416 81 90 8.0 13.0 0.00 0.02 0.02 88 1008.6
20141024173853 82 82 10.0 13.0 0.00 0.02 0.02 89 1008.6
20141024173429 82 94 11.0 14.0 0.00 0.02 0.02 88 1008.6
20141024172856 82 109 11.0 14.0 0.00 0.02 0.02 87 1008.5
20141024171916 83 98 7.0 11.0 0.00 0.02 0.02 87 1008.5
20141024171332 83 89 7.0 11.0 0.00 0.02 0.02 87 1008.5
20141024170351 83 107 8.0 11.0 0.00 0.02 0.02 87 1008.5
20141024165922 83 90 9.0 12.0 0.00 0.02 0.02 87 1008.6
20141024165335 83 75 10.0 12.0 0.00 0.02 0.02 87 1008.6
20141024164418 83 64 10.0 11.0 0.00 0.02 0.02 87 1008.6
20141024163852 83 73 10.0 12.0 0.00 0.02 0.02 86 1008.6
20141024162353 83 94 10.0 11.0 0.00 0.02 0.02 86 1008.8
20141024161843 83 66 9.0 11.0 0.00 0.02 0.02 86 1008.8
20141024161416 83 71 10.0 12.0 0.00 0.02 0.02 86 1008.8
20141024160846 83 76 11.0 15.0 0.00 0.02 0.02 86 1008.8
20141024155830 83 58 11.0 15.0 0.00 0.02 0.02 86 1008.9
20141024155342 83 65 11.0 14.0 0.00 0.02 0.02 86 1008.9
20141024154848 82 55 11.0 13.0 0.00 0.02 0.02 86 1008.9
20141024154335 83 59 9.0 13.0 0.00 0.02 0.02 87 1009.0
20141024153845 83 61 10.0 13.0 0.00 0.02 0.02 87 1009.0
20141024153352 83 56 11.0 13.0 0.00 0.02 0.02 87 1009.0
20141024152838 83 65 10.0 14.0 0.00 0.02 0.02 87 1009.2
20141024152345 83 60 11.0 14.0 0.01 0.02 0.02 87 1009.2
20141024151834 83 59 12.0 14.0 0.02 0.02 0.02 87 1009.2
20141024151344 83 63 11.0 13.0 0.02 0.02 0.02 88 1009.5
20141024150851 82 67 10.0 14.0 0.02 0.02 0.02 88 1009.5
20141024150343 82 54 11.0 14.0 0.02 0.02 0.02 88 1009.5
20141024145847 82 52 10.0 12.0 0.02 0.02 0.02 88 1009.7
20141024145335 82 53 9.0 11.0 0.02 0.02 0.02 89 1009.7
20141024144841 82 59 9.0 12.0 0.02 0.02 0.02 89 1009.7
20141024144349 82 50 9.0 12.0 0.02 0.02 0.02 89 1009.9
20141024143837 82 42 9.0 12.0 0.02 0.02 0.02 89 1009.9
20141024143348 82 53 10.0 12.0 0.02 0.02 0.02 89 1009.9
20141024142833 82 56 5.0 13.0 0.02 0.02 0.02 89 1010.0
20141024142341 82 93 2.0 15.0 0.02 0.02 0.02 88 1010.0
20141024141850 82 67 12.0 15.0 0.00 0.00 0.00 88 1010.0
20141024141338 83 62 13.0 15.0 0.00 0.00 0.00 89 1009.9
20141024140844 83 49 11.0 13.0 0.00 0.00 0.00 89 1009.9
20141024140332 83 57 11.0 13.0 0.00 0.00 0.00 89 1009.9
20141024135850 83 57 12.0 12.0 0.00 0.00 0.00 88 1009.8
20141024134909 83 59 11.0 12.0 0.00 0.00 0.00 87 1009.8
20141024134428 83 67 7.0 10.0 0.00 0.00 0.00 87 1009.6
20141024133914 83 60 10.0 12.0 0.00 0.00 0.00 87 1009.6
20141024133348 84 67 11.0 12.0 0.00 0.00 0.00 87 1009.6
20141024132849 84 54 9.0 11.0 0.00 0.00 0.00 87 1009.6
20141024132427 84 46 10.0 11.0 0.00 0.00 0.00 86 1009.6
20141024131906 84 59 7.0 9.0 0.00 0.00 0.00 86 1009.6
20141024131354 84 61 5.0 7.0 0.00 0.00 0.00 86 1009.7
20141024130839 84 57 6.0 9.0 0.00 0.00 0.00 86 1009.7
20141024125905 84 55 8.0 10.0 0.00 0.00 0.00 85 1010.0
20141024125348 84 74 6.0 10.0 0.00 0.00 0.00 85 1010.0
20141024124838 84 64 8.0 13.0 0.00 0.00 0.00 85 1010.0
20141024123913 84 75 10.0 13.0 0.00 0.00 0.00 85 1010.1
20141024123332 84 65 10.0 13.0 0.00 0.00 0.00 85 1010.1
20141024122425 84 74 11.0 11.0 0.00 0.00 0.00 86 1010.1
20141024121914 84 78 10.0 12.0 0.00 0.00 0.00 85 1010.1
20141024121333 84 74 9.0 11.0 0.00 0.00 0.00 85 1010.3
20141024120411 84 80 9.0 11.0 0.00 0.00 0.00 85 1010.3
20141024115847 84 74 10.0 11.0 0.00 0.00 0.00 86 1010.5
20141024115425 84 85 7.0 11.0 0.00 0.00 0.00 85 1010.5
20141024114403 84 66 9.0 11.0 0.00 0.00 0.00 85 1010.5
20141024113852 84 62 10.0 11.0 0.00 0.00 0.00 84 1010.5
20141024113422 84 71 8.0 11.0 0.00 0.00 0.00 84 1010.5
20141024112906 84 76 9.0 10.0 0.00 0.00 0.00 85 1010.5
20141024112351 84 83 7.0 10.0 0.00 0.00 0.00 85 1010.5
20141024111832 84 69 9.0 10.0 0.00 0.00 0.00 85 1010.5
20141024111415 84 78 8.0 9.0 0.00 0.00 0.00 85 1010.2
20141024110857 84 95 5.0 8.0 0.00 0.00 0.00 85 1010.2
20141024105916 84 78 6.0 10.0 0.00 0.00 0.00 84 1010.2
20141024105344 84 76 8.0 10.0 0.00 0.03 0.00 84 1010.2
20141024104841 84 67 7.0 10.0 0.00 0.03 0.00 84 1010.2
20141024103834 84 75 5.0 9.0 0.00 0.03 0.00 84 1010.1
20141024102919 84 92 6.0 7.0 0.00 0.03 0.00 84 1010.1
20141024102353 84 72 6.0 8.0 0.00 0.03 0.00 84 1010.1
20141024101835 84 84 5.0 10.0 0.00 0.03 0.00 84 1010.1
20141024100406 84 71 8.0 9.0 0.00 0.03 0.00 83 1010.1
20141024095850 84 81 7.0 9.0 0.00 0.03 0.00 83 1009.9
20141024094916 84 83 6.0 9.0 0.00 0.22 0.00 82 1009.9
20141024094337 84 83 7.0 10.0 0.00 0.22 0.00 82 1009.6
20141024093404 84 69 7.0 9.0 0.00 0.22 0.00 82 1009.6
20141024092839 84 78 7.0 8.0 0.00 0.22 0.00 81 1009.2
20141024091402 84 71 6.0 7.0 0.00 0.22 0.00 82 1009.0
20141024090843 84 64 5.0 7.0 0.00 0.22 0.00 82 1009.0
20141024084930 84 60 6.0 8.0 0.00 0.38 0.00 83 1009.0
20141024084358 84 63 5.0 7.0 0.00 0.38 0.00 82 1008.6
20141024083845 84 75 6.0 7.0 0.00 0.38 0.00 82 1008.6
20141024083415 84 81 5.0 6.0 0.00 0.38 0.00 82 1008.6
20141024082851 84 94 4.0 7.0 0.00 0.38 0.00 83 1008.5
20141024082423 84 70 5.0 7.0 0.00 0.38 0.00 83 1008.5
20141024081914 84 65 6.0 6.0 0.00 0.38 0.00 84 1008.5
20141024081337 84 75 4.0 7.0 0.00 0.38 0.00 83 1008.5
20141024080841 84 83 5.0 7.0 0.00 0.38 0.00 83 1008.5
20141024080411 84 94 5.0 6.0 0.00 0.38 0.00 83 1008.5
20141024075847 84 85 5.0 6.0 0.00 0.38 0.00 83 1008.3
20141024074926 84 86 4.0 6.0 0.00 0.58 0.00 83 1008.3
20141024074401 84 83 4.0 6.0 0.00 0.58 0.00 84 1008.0
20141024073847 84 91 1.0 5.0 0.00 0.58 0.00 84 1008.0
20141024072407 85 101 3.0 5.0 0.00 0.58 0.00 83 1008.0
20141024071851 85 86 4.0 5.0 0.00 0.58 0.00 82 1008.0
20141024071413 85 92 3.0 5.0 0.00 0.58 0.00 81 1007.9
20141024070833 85 99 5.0 5.0 0.00 0.58 0.00 82 1007.9
20141024070412 85 88 3.0 7.0 0.00 0.58 0.00 81 1007.9
20141024065852 86 82 4.0 7.0 0.00 0.58 0.00 81 1007.6
20141024064925 86 92 5.0 6.0 0.00 0.73 0.00 81 1007.6
20141024064410 86 90 5.0 5.0 0.00 0.73 0.00 80 1007.4
20141024063844 86 96 4.0 6.0 0.00 0.73 0.00 81 1007.4
20141024063425 86 89 6.0 7.0 0.00 0.73 0.00 81 1007.4
20141024062912 86 94 4.0 7.0 0.00 0.73 0.00 81 1007.3
20141024062352 86 86 5.0 6.0 0.00 0.73 0.00 81 1007.3
20141024061838 86 82 4.0 6.0 0.00 0.73 0.00 80 1007.3
20141024061409 86 72 5.0 6.0 0.00 0.73 0.00 81 1007.0
20141024060849 86 83 4.0 6.0 0.00 0.73 0.00 81 1007.0
20141024060423 86 85 4.0 6.0 0.00 0.73 0.00 81 1007.0
20141024055850 86 103 5.0 6.0 0.00 0.73 0.00 81 1007.0
20141024055425 86 92 4.0 5.0 0.00 0.76 0.00 81 1007.0
20141024054911 86 92 4.0 6.0 0.00 0.76 0.00 81 1007.0
20141024054329 86 92 6.0 6.0 0.00 0.76 0.00 81 1007.0
20141024053411 86 82 5.0 6.0 0.00 0.76 0.00 81 1007.0
20141024052851 86 74 4.0 6.0 0.00 0.76 0.00 81 1006.9
20141024052428 86 80 4.0 6.0 0.00 0.76 0.00 82 1006.9
20141024051907 86 82 4.0 5.0 0.00 0.76 0.00 82 1006.9
20141024051343 86 61 4.0 5.0 0.00 0.76 0.00 82 1006.9
20141024050837 86 94 4.0 6.0 0.00 0.76 0.00 82 1006.9
20141024050409 86 97 4.0 6.0 0.00 0.76 0.00 82 1006.9
20141024045845 87 91 3.0 6.0 0.00 0.76 0.00 82 1006.9
20141024045416 87 92 5.0 6.0 0.00 0.76 0.00 82 1006.9
20141024044836 87 98 5.0 7.0 0.00 0.76 0.00 82 1006.9
20141024044411 87 103 5.0 7.0 0.00 0.76 0.00 82 1007.0
20141024043837 87 88 5.0 7.0 0.00 0.76 0.00 82 1007.0
20141024043414 87 92 5.0 6.0 0.00 0.76 0.00 82 1007.0
20141024042841 87 109 4.0 6.0 0.00 0.76 0.00 82 1007.1
20141024042417 87 103 4.0 7.0 0.00 0.76 0.00 82 1007.1
20141024041915 87 111 5.0 7.0 0.00 0.76 0.00 81 1007.1
20141024041355 87 111 5.0 6.0 0.00 0.76 0.00 81 1007.0
20141024040854 87 82 5.0 6.0 0.00 0.76 0.00 81 1007.0
20141024040431 87 103 5.0 6.0 0.00 0.76 0.00 81 1007.0
20141024035853 87 102 3.0 6.0 0.00 0.76 0.00 82 1007.1
20141024035428 87 103 3.0 6.0 0.00 0.76 0.00 81 1007.1
20141024034902 87 109 4.0 5.0 0.00 0.76 0.00 82 1007.1
20141024034350 87 105 4.0 5.0 0.00 0.76 0.00 81 1007.4
20141024033843 87 90 3.0 5.0 0.00 0.76 0.00 82 1007.4
20141024033420 87 98 4.0 6.0 0.00 0.76 0.00 82 1007.4
20141024032914 87 101 3.0 6.0 0.00 0.76 0.00 82 1007.6